Regional Weather Roundup
Issued by NWS

Home | Current Version | Previous Version | Text Only | Print | Product List | Glossary Off
Versions: 1 2 3 4 5 6 7 8 9 10 11 12 13 14 15 16 17 18 19 20 21 22 23 24 25 26 27 28 29 30 31 32 33 34 35 36 37 38 39 40 41 42 43 44 45 46 47 48 49 50

000
ASUS43 KIND 271409
RWRIN

WEATHER ROUNDUP FOR INDIANA
NATIONAL WEATHER SERVICE INDIANAPOLIS IN
1000 AM EDT MON APR 27 2015

NOTE: "FAIR" INDICATES FEW OR NO CLOUDS BELOW 12,000 FEET WITH NO
SIGNIFICANT WEATHER AND/OR OBSTRUCTIONS TO VISIBILITY.

* - STATION DOES NOT REPORT WEATHER SUCH AS PRECIPITATION OR FOG.

+ - STATION NOT QUALITY CONTROLLED BY THE NATIONAL WEATHER SERVICE.
    USE DATA WITH CAUTION...ESPECIALLY DEWPOINT AND RELATIVE
    HUMIDITY OBSERVATIONS.

INZ001>003-010>013-019-020-271500-
NORTHWEST INDIANA

CITY           SKY/WX    TMP DP  RH WIND       PRES   REMARKS
GARY /AIRPORT/ SUNNY     46  32  57 N12G25    30.12R
KNOX *+        SUNNY     45  27  49 NW13      30.07R
LA PORTE +     PTSUNNY   46  37  71 N12       30.08R
MICHIGAN CITY+ CLOUDY    43  32  65 N14       30.09R
MONTICELLO +   SUNNY     46  37  69 N13       30.07R
VALPARAISO     SUNNY     46  35  65 N9        30.09R

$$

LMZ046-743>745-271500-
SOUTHERN LAKE MICHIGAN

STATION/POSITION TIME  TEMP    WIND        PRES    WAVE
                       AIR SEA DIR/SP/G            HT
                 (UTC) (F)     (DEG/KT/KT) (MB)    (FT)
BURNS HARBOR     1400   42     350/ 15/ 18 1019.6S
MICHIGAN CITY    1400   41     330/ 17/ 19   N/A
5NW MICH CITY    1400   40 45  340/ 14/ 17   N/A     4

$$

INZ004-005-014>016-021>024-271500-
NORTH CENTRAL INDIANA

CITY           SKY/WX    TMP DP  RH WIND       PRES   REMARKS
ELKHART        MOSUNNY   46  32  57 NW7       30.05R
GOSHEN         SUNNY     46  34  62 NW7       30.03R
LOGANSPORT +   SUNNY     45  34  65 NW9       30.07R
PERU/GRISSOM   SUNNY     46  37  69 NW13      30.05R
ROCHESTER +    SUNNY     48  36  61 NW10      30.05S
SOUTH BEND     MOSUNNY   46  35  65 NW10      30.06R
WARSAW +       SUNNY     45  34  65 NW7       30.04R

$$

INZ006>009-017-018-025>027-271500-
NORTHEAST INDIANA

CITY           SKY/WX    TMP DP  RH WIND       PRES   REMARKS
ANGOLA *+      SUNNY     45  32  61 VRB6      30.00R
AUBURN +       SUNNY     46  34  61 W7        30.02R
FORT WAYNE     MOSUNNY   49  37  63 NW8       30.03R
HUNTINGTON +   SUNNY     47  35  62 NW6       30.02R

$$

INZ028-029-035-036-043>045-051>053-271500-
WEST CENTRAL INDIANA

CITY           SKY/WX    TMP DP  RH WIND       PRES   REMARKS
CRAWFORDSVL +  SUNNY     44  32  63 NW12      30.06S
GREENCASTLE +  SUNNY     45  32  61 N12       30.04F
LAFAYETTE      SUNNY     46  35  65 N12       30.07S
TERRE HAUTE    SUNNY     48  35  60 N15       30.06S

$$

INZ030>032-037>040-046>048-054>057-064-065-271500-
CENTRAL INDIANA

CITY           SKY/WX    TMP DP  RH WIND       PRES   REMARKS
ANDERSON       SUNNY     46  32  57 NW12      30.03R
CP ATTERBURY + SUNNY     46  36  66 NW10      30.02F
COLUMBUS       SUNNY     45  34  65 NW12      30.02S
FRANKFORT +    SUNNY     45  37  75 NW13G18   30.07S
GREENWOOD *+   SUNNY     46  32  57 N12       30.03R
INDIANAPOLIS   MOSUNNY   47  35  63 NW14      30.03R
-EAGLE CREEK   SUNNY     46  36  68 N12       30.03S
KOKOMO *+      SUNNY     46  34  61 NW15      30.05R
MARION +       SUNNY     45  34  64 NW12      30.04R
MT COMFORT *+  SUNNY     46  28  49 N9        30.03R
SHELBYVILLE    SUNNY     49  36  61 N13       30.02R
ZIONSVILLE +   SUNNY     45  35  67 N12       30.05R

$$

INZ033-034-041-042-049-050-058-059-271500-
EAST CENTRAL INDIANA

CITY           SKY/WX    TMP DP  RH WIND       PRES   REMARKS
MUNCIE         SUNNY     46  36  68 NW10      30.01R

$$

INZ060-061-067>069-081>083-085>088-271500-
SOUTHWEST INDIANA

CITY           SKY/WX    TMP DP  RH WIND       PRES   REMARKS
EVANSVILLE     PTSUNNY   50  32  50 N8        30.04R
HUNTINGBURG *+ MOSUNNY   46  32  57 NE8       30.02R
WASHINGTON +   MOSUNNY   46  32  56 N10       30.02F

$$

INZ062-063-066-070>080-084-089>092-271500-
SOUTH CENTRAL AND SOUTHEAST INDIANA

CITY           SKY/WX    TMP DP  RH WIND       PRES   REMARKS
BEDFORD +      SUNNY     46  34  61 N9        30.01F
BLOOMINGTON    SUNNY     49  35  58 N12       30.02F
MADISON *+     SUNNY     48  32  53 CALM      30.01F
SEYMOUR +      SUNNY     48  34  57 N5        30.01F

$$



USA.gov is the U.S. government's official web portal to all federal, state and local government web resources and services.